PAL333 RPVE-RPLL

Flight info

Callsign PAL333
Flight time 0h 45m
Altitude 24000
Route MINOR8A MINOR B473 LAIYA LAIYA3R
Aircraft A35K/H-SDE2E3GHIJ3J4J5LM1ORWXY/LB1D1

Departure

Time 2026-05-04 13:12
Airport Godofredo P. Ramos Airport (RPVE)

Arrival

Time 2026-05-04 13:58
Airport Ninoy Aquino International Airport (RPLL)
Time Latitude Longitude Altitude Speed Heading
2026-05-04 13:12 11.97131 122.02955 15208 ft 275 kts 46°
2026-05-04 13:12 11.98740 122.04124 15718 ft 303 kts 31°
2026-05-04 13:12 12.00722 122.05183 16138 ft 331 kts 28°
2026-05-04 13:13 12.02856 122.06258 16538 ft 354 kts 28°
2026-05-04 13:13 12.05080 122.07373 17172 ft 366 kts 28°
2026-05-04 13:13 12.07380 122.08530 17990 ft 372 kts 28°
2026-05-04 13:13 12.09716 122.09715 18737 ft 378 kts 28°
2026-05-04 13:14 12.12091 122.10913 19451 ft 384 kts 28°
2026-05-04 13:14 12.14501 122.12129 20205 ft 389 kts 28°
2026-05-04 13:14 12.16944 122.13364 20989 ft 394 kts 28°
2026-05-04 13:14 12.18606 122.14205 21525 ft 397 kts 27°
2026-05-04 13:15 12.21917 122.15882 22573 ft 404 kts 27°
2026-05-04 13:15 12.23596 122.16733 23095 ft 408 kts 27°
2026-05-04 13:15 12.26156 122.18031 23813 ft 413 kts 27°
2026-05-04 13:15 12.28724 122.19333 24408 ft 417 kts 27°
2026-05-04 13:16 12.31355 122.20667 24793 ft 419 kts 27°
2026-05-04 13:16 12.34043 122.21800 24929 ft 415 kts 17°
2026-05-04 13:16 12.36866 122.22115 24955 ft 407 kts 357°
2026-05-04 13:16 12.39601 122.21457 24949 ft 406 kts 337°
2026-05-04 13:17 12.42037 122.20002 24945 ft 407 kts 326°
2026-05-04 13:17 12.44357 122.18343 24938 ft 408 kts 326°
2026-05-04 13:17 12.46689 122.16677 24933 ft 409 kts 326°
2026-05-04 13:17 12.49031 122.15024 24944 ft 409 kts 326°
2026-05-04 13:18 12.51378 122.13378 24943 ft 409 kts 326°
2026-05-04 13:18 12.53475 122.11914 24943 ft 409 kts 326°
2026-05-04 13:18 12.55813 122.10284 24944 ft 409 kts 326°
2026-05-04 13:18 12.58166 122.08646 24943 ft 409 kts 327°
2026-05-04 13:19 12.60518 122.07009 24934 ft 409 kts 326°
2026-05-04 13:19 12.62872 122.05371 24945 ft 409 kts 326°
2026-05-04 13:19 12.65218 122.03739 24946 ft 409 kts 326°
2026-05-04 13:19 12.67570 122.02102 24947 ft 408 kts 326°
2026-05-04 13:20 12.69919 122.00467 24936 ft 408 kts 326°
2026-05-04 13:20 12.72275 121.98827 24942 ft 408 kts 326°
2026-05-04 13:20 12.74625 121.97191 24942 ft 408 kts 326°
2026-05-04 13:20 12.76976 121.95554 24939 ft 408 kts 326°
2026-05-04 13:21 12.79320 121.93922 24947 ft 408 kts 326°
2026-05-04 13:21 12.81670 121.92284 24947 ft 408 kts 326°
2026-05-04 13:21 12.84011 121.90652 24946 ft 408 kts 326°
2026-05-04 13:21 12.86355 121.89018 24941 ft 408 kts 326°
2026-05-04 13:22 12.88700 121.87384 24941 ft 408 kts 326°
2026-05-04 13:22 12.91044 121.85749 24937 ft 408 kts 326°
2026-05-04 13:22 12.93388 121.84114 24942 ft 408 kts 326°
2026-05-04 13:22 12.95727 121.82482 24935 ft 407 kts 326°
2026-05-04 13:23 12.98076 121.80843 24941 ft 407 kts 326°
2026-05-04 13:23 13.00418 121.79208 24939 ft 408 kts 326°
2026-05-04 13:23 13.02764 121.77570 24950 ft 408 kts 326°
2026-05-04 13:23 13.05108 121.75933 24947 ft 408 kts 326°
2026-05-04 13:24 13.07422 121.74317 24947 ft 408 kts 326°
2026-05-04 13:24 13.09769 121.72677 24949 ft 408 kts 326°
2026-05-04 13:24 13.12117 121.71037 24948 ft 408 kts 326°
2026-05-04 13:25 13.16813 121.67754 24953 ft 408 kts 326°
2026-05-04 13:25 13.19161 121.66112 24946 ft 408 kts 326°
2026-05-04 13:25 13.21504 121.64473 24952 ft 408 kts 326°
2026-05-04 13:25 13.23849 121.62833 24956 ft 408 kts 326°
2026-05-04 13:26 13.26193 121.61192 24956 ft 408 kts 326°
2026-05-04 13:26 13.28539 121.59550 24955 ft 408 kts 326°
2026-05-04 13:26 13.30880 121.57911 24952 ft 408 kts 326°
2026-05-04 13:26 13.33225 121.56269 24955 ft 408 kts 326°
2026-05-04 13:27 13.35574 121.54624 24952 ft 408 kts 326°
2026-05-04 13:27 13.37921 121.52979 24952 ft 408 kts 326°
2026-05-04 13:27 13.40261 121.51339 24958 ft 408 kts 326°
2026-05-04 13:27 13.42605 121.49696 24961 ft 408 kts 326°
2026-05-04 13:28 13.44954 121.48050 24959 ft 409 kts 326°
2026-05-04 13:28 13.47308 121.46399 24958 ft 410 kts 326°
2026-05-04 13:28 13.49660 121.44749 24958 ft 410 kts 326°
2026-05-04 13:28 13.52025 121.43090 24951 ft 410 kts 326°
2026-05-04 13:29 13.54376 121.41439 24954 ft 410 kts 326°
2026-05-04 13:29 13.56733 121.39785 24950 ft 409 kts 326°
2026-05-04 13:29 13.59036 121.38152 24961 ft 397 kts 324°
2026-05-04 13:29 13.61289 121.36465 24956 ft 404 kts 324°
2026-05-04 13:30 13.63563 121.34750 24955 ft 408 kts 324°
2026-05-04 13:30 13.65857 121.33027 24955 ft 409 kts 324°
2026-05-04 13:30 13.68167 121.31298 24956 ft 410 kts 324°
2026-05-04 13:30 13.70466 121.29580 24830 ft 406 kts 324°
2026-05-04 13:31 13.72748 121.27877 24207 ft 407 kts 324°
2026-05-04 13:31 13.75198 121.26375 23316 ft 414 kts 338°
2026-05-04 13:31 13.77996 121.25625 22272 ft 420 kts 354°
2026-05-04 13:31 13.80916 121.25363 21431 ft 421 kts 357°
2026-05-04 13:32 13.83837 121.25170 20742 ft 419 kts 357°
2026-05-04 13:32 13.86738 121.24983 20093 ft 416 kts 357°
2026-05-04 13:32 13.89576 121.24799 19475 ft 413 kts 357°
2026-05-04 13:32 13.92470 121.24608 18874 ft 409 kts 357°
2026-05-04 13:33 13.95255 121.24422 18274 ft 406 kts 357°
2026-05-04 13:33 13.98067 121.24234 17557 ft 403 kts 357°
2026-05-04 13:33 14.00828 121.24050 16987 ft 397 kts 357°
2026-05-04 13:33 14.03567 121.23863 16369 ft 392 kts 357°
2026-05-04 13:34 14.06276 121.23669 15736 ft 388 kts 357°
2026-05-04 13:34 14.08957 121.23468 15111 ft 384 kts 357°
2026-05-04 13:34 14.11615 121.23246 14468 ft 382 kts 357°
2026-05-04 13:34 14.12507 121.23168 14256 ft 381 kts 358°
2026-05-04 13:35 14.13367 121.23090 14069 ft 380 kts 358°
2026-05-04 13:36 14.33927 121.21150 9458 ft 324 kts 357°
2026-05-04 13:37 14.36115 121.20931 9198 ft 308 kts 357°
2026-05-04 13:37 14.38197 121.20715 8969 ft 295 kts 357°
2026-05-04 13:37 14.40155 121.20169 8571 ft 293 kts 336°
2026-05-04 13:37 14.41735 121.18847 8110 ft 296 kts 311°
2026-05-04 13:38 14.42623 121.16951 7793 ft 294 kts 285°
2026-05-04 13:38 14.42636 121.14893 7596 ft 285 kts 258°
2026-05-04 13:38 14.41900 121.13075 7440 ft 274 kts 240°
2026-05-04 13:38 14.40919 121.11420 7303 ft 262 kts 237°
2026-05-04 13:39 14.39962 121.09876 7095 ft 256 kts 237°
2026-05-04 13:39 14.39005 121.08340 7006 ft 253 kts 237°
2026-05-04 13:39 14.38057 121.06813 6989 ft 253 kts 237°
2026-05-04 13:39 14.37102 121.05271 6994 ft 256 kts 237°
2026-05-04 13:40 14.36147 121.03735 6993 ft 255 kts 237°
2026-05-04 13:40 14.35191 121.02190 6993 ft 256 kts 237°
2026-05-04 13:40 14.34229 121.00641 6916 ft 255 kts 237°
2026-05-04 13:40 14.33289 120.99128 6698 ft 249 kts 237°
2026-05-04 13:41 14.32354 120.97618 6332 ft 251 kts 237°
2026-05-04 13:41 14.31404 120.96085 6034 ft 256 kts 237°
2026-05-04 13:41 14.30449 120.94527 5975 ft 258 kts 237°
2026-05-04 13:42 14.28527 120.91391 5990 ft 259 kts 237°
2026-05-04 13:42 14.27568 120.89826 5992 ft 258 kts 237°
2026-05-04 13:42 14.26610 120.88260 5992 ft 258 kts 237°
2026-05-04 13:42 14.25650 120.86697 5974 ft 258 kts 237°
2026-05-04 13:43 14.24693 120.85133 5998 ft 258 kts 237°
2026-05-04 13:43 14.23737 120.83570 5980 ft 258 kts 237°
2026-05-04 13:44 14.18209 120.74513 4990 ft 254 kts 237°
2026-05-04 13:45 14.17274 120.72975 4993 ft 253 kts 237°
2026-05-04 13:45 14.16347 120.71443 4992 ft 252 kts 237°
2026-05-04 13:45 14.15420 120.69911 5001 ft 252 kts 237°
2026-05-04 13:45 14.14520 120.68366 4994 ft 251 kts 242°
2026-05-04 13:46 14.14122 120.66628 4987 ft 251 kts 272°
2026-05-04 13:46 14.14582 120.64919 4998 ft 249 kts 302°
2026-05-04 13:46 14.15762 120.63689 4991 ft 235 kts 332°
2026-05-04 13:46 14.17252 120.63203 4991 ft 221 kts 354°
2026-05-04 13:47 14.18770 120.63019 4993 ft 219 kts 357°
2026-05-04 13:47 14.20288 120.62877 4996 ft 219 kts 357°
2026-05-04 13:47 14.21797 120.62922 4988 ft 216 kts 14°
2026-05-04 13:47 14.23161 120.63503 4996 ft 210 kts 38°
2026-05-04 13:48 14.24248 120.64501 4989 ft 210 kts 47°
2026-05-04 13:48 14.25262 120.65598 4991 ft 212 kts 48°
2026-05-04 13:48 14.26266 120.66714 4984 ft 212 kts 48°
2026-05-04 13:48 14.27259 120.67823 4843 ft 209 kts 48°
2026-05-04 13:49 14.28244 120.68923 4522 ft 210 kts 49°
2026-05-04 13:49 14.29236 120.70034 4161 ft 211 kts 49°
2026-05-04 13:49 14.30226 120.71142 3874 ft 210 kts 49°
2026-05-04 13:49 14.31209 120.72241 3617 ft 207 kts 50°
2026-05-04 13:50 14.32187 120.73339 3493 ft 208 kts 50°
2026-05-04 13:50 14.33167 120.74440 3482 ft 208 kts 50°
2026-05-04 13:50 14.34132 120.75523 3489 ft 209 kts 50°
2026-05-04 13:50 14.35116 120.76625 3488 ft 209 kts 50°
2026-05-04 13:51 14.36096 120.77725 3481 ft 208 kts 50°
2026-05-04 13:51 14.37088 120.78836 3215 ft 208 kts 50°
2026-05-04 13:51 14.38049 120.79915 3015 ft 206 kts 50°
2026-05-04 13:51 14.38994 120.81028 2979 ft 205 kts 57°
2026-05-04 13:52 14.40493 120.83517 2983 ft 204 kts 61°
2026-05-04 13:52 14.41210 120.84778 2983 ft 203 kts 63°
2026-05-04 13:52 14.41915 120.86036 2979 ft 203 kts 62°
2026-05-04 13:53 14.42634 120.87290 2799 ft 203 kts 62°
2026-05-04 13:53 14.43350 120.88541 2537 ft 202 kts 63°
2026-05-04 13:53 14.44038 120.89780 2259 ft 200 kts 61°
2026-05-04 13:54 14.45398 120.92204 1783 ft 189 kts 62°
2026-05-04 13:54 14.46011 120.93297 1541 ft 164 kts 63°
2026-05-04 13:54 14.47018 120.95092 1161 ft 130 kts 65°
2026-05-04 13:55 14.47454 120.95876 1002 ft 124 kts 63°
2026-05-04 13:55 14.48314 120.97413 708 ft 123 kts 62°
2026-05-04 13:55 14.48740 120.98174 579 ft 123 kts 62°
2026-05-04 13:56 14.49177 120.98944 419 ft 126 kts 60°
2026-05-04 13:56 14.49616 120.99729 238 ft 125 kts 64°
2026-05-04 13:56 14.50429 121.01169 67 ft 87 kts 58°
2026-05-04 13:57 14.50635 121.01533 64 ft 52 kts 60°
2026-05-04 13:57 14.50833 121.01894 73 ft 58 kts 59°
2026-05-04 13:58 14.51181 121.02266 86 ft 9 kts 283°
2026-05-04 13:58 14.51115 121.02118 69 ft 17 kts 237°
2026-05-04 13:58 14.51067 121.02037 68 ft 0 kts 239°
2026-05-04 13:59 14.51053 121.02014 68 ft 7 kts 240°
2026-05-04 13:59 14.51019 121.01952 65 ft 4 kts 240°
2026-05-04 13:59 14.51019 121.01951 65 ft 0 kts 240°
2026-05-04 14:00 14.51009 121.01933 67 ft 6 kts 240°
2026-05-04 14:00 14.50922 121.01773 62 ft 17 kts 240°
2026-05-04 14:00 14.50869 121.01678 62 ft 17 kts 240°
2026-05-04 14:01 14.50805 121.01563 63 ft 21 kts 239°
2026-05-04 14:01 14.50734 121.01438 63 ft 19 kts 240°
2026-05-04 14:01 14.50699 121.01373 65 ft 7 kts 242°
2026-05-04 14:02 14.50702 121.01321 65 ft 9 kts 296°
2026-05-04 14:02 14.50762 121.01270 63 ft 9 kts 327°
2026-05-04 14:02 14.50807 121.01240 59 ft 0 kts 327°